Presure
233 230 226 224 220 210 229 250 243 239 228 221 217 231 239 238 237 236 233 232 234 225 226 227 248 256 259 260 261 259 260 257 263 262 269 264 255 255
225 226 226 226 223 247 245 239 235 226 215 220 235 239 239 230 231 234 234 231 222 223 232 265 261 253 241 234 232 234 235 236 237 240 245 251 254 255
228 228 205 226 245 242 237 230 224 215 225 226 233 229 215 226 228 239 239 232 229 261 253 239 230 230 229 225 224 224 223 224 226 228 230 232 236 241
244 227 240 240 231 227 235 217 216 231 218 228 224 213 227 230 239 228 226 249 247 231 231 229 224 221 217 213 207 202 201 203 204 206 206 206 209 216
245 256 236 226 224 223 222 221 234 216 214 217 212 219 228 236 226 235 244 219 224 223 215 208 202 210 217 269 260 251 250 249 251 251 253 257 262 267
213 211 213 225 229 223 237 238 221 223 208 212 221 227 230 227 244 231 215 204 199 201 231 249 260 251 244 244 235 250 258 269 290 292 338 336 253 253
218 205 177 200 212 216 205 202 206 223 230 225 235 229 237 235 199 196 194 221 239 256 250 232 230 245 257 269 292 337 400 431 424 414 402 394 391 387
240 249 252 245 209 212 214 206 232 231 234 235 233 232 192 195 202 224 253 252 223 220 235 244 259 271 335 420 420 415 396 388 384 380 374 370 365 360
245 254 251 243 234 235 248 244 233 231 232 223 190 198 208 225 256 257 224 229 238 250 262 274 439 424 409 391 371 370 366 365 360 363 379 396 427 452
209 241 245 244 241 235 228 227 232 200 202 205 215 226 250 238 226 228 242 253 257 290 424 416 386 385 386 381 373 374 378 383 391 410 433 455 447 426
247 241 229 227 227 225 225 185 193 207 214 228 256 223 225 228 241 250 256 275 432 400 428 427 433 431 507 430 419 418 417 425 434 449 442 438 424 423
225 224 226 223 189 186 199 207 220 250 253 208 227 229 243 249 255 273 433 397 424 407 404 398 593 568 564 495 263 454 442 443 452 455 447 443 430 416
203 191 188 199 219 236 250 239 210 212 226 227 239 245 253 326 427 393 384 363 353 344 350 390 381 431 469 489 471 467 466 458 445 410 406 397 400 392
205 250 246 236 224 216 203 216 220 228 234 242 300 405 409 395 391 365 352 341 333 319 319 330 363 381 372 373 372 369 370 380 391 382 384 399 400 395
223 215 216 212 203 212 222 222 236 306 446 438 382 409 394 365 365 341 331 323 319 322 364 313 321 324 331 345 363 371 374 370 358 360 359 363 367 366
213 212 209 213 223 221 235 452 423 393 383 410 384 357 347 354 335 323 314 368 367 370 386 393 389 372 361 375 330 323 317 322 328 334 360 366 374 382
207 208 221 224 233 309 378 433 412 399 376 350 340 367 346 330 321 309 364 364 371 353 371 348 349 346 380 364 371 378 370 384 377 379 375 348 349 327
204 222 222 237 395 367 337 333 344 334 347 340 360 338 324 314 314 358 352 369 349 331 324 318 318 321 319 318 318 320 320 320 321 320 321 321 323 330
229 216 422 387 357 345 348 351 348 341 327 352 332 320 309 303 349 354 356 329 317 309 305 309 309 312 313 320 321 319 319 315 310 312 315 315 318 324
243 333 397 362 335 323 345 335 345 325 348 333 318 308 297 346 344 352 321 305 304 312 306 306 319 319 313 294 293 295 298 294 297 299 302 299 294 316
314 355 377 344 322 314 332 336 337 313 352 268 307 299 327 336 351 333 304 295 300 302 310 308 289 283 279 283 291 287 288 288 286 298 300 301 307 322
319 387 362 330 312 296 293 337 335 308 230 316 303 292 343 339 357 303 291 297 302 305 301 288 276 278 280 288 289 289 292 294 295 325 328 334 335 351
320 390 351 321 308 301 285 332 323 305 216 314 300 290 338 344 313 292 294 296 293 287 276 274 280 282 293 294 296 305 312 317 319 314 248 321 331 347
Wind_Speed
89 87 90 90 94 92 93 79 75 74 73 80 82 84 84 81 81 80 79 79 80 80 83 87 87 85 84 84 84 84 83 83 84 86 90 95 96 96
87 87 87 88 92 83 80 76 76 74 77 80 84 84 83 82 84 85 84 82 83 86 90 85 82 79 79 79 81 81 81 82 83 84 85 86 90 94
85 84 79 86 79 77 77 75 77 81 78 78 79 79 81 84 87 87 87 87 89 90 84 81 82 82 83 84 85 86 87 88 89 89 90 91 93 96
79 82 79 76 74 76 77 78 81 80 79 79 78 79 84 87 87 85 87 92 89 85 86 86 86 86 87 87 87 87 88 89 90 89 90 91 93 95
70 73 73 75 76 77 80 82 81 80 81 81 80 82 86 89 86 91 91 86 89 90 87 85 86 91 94 106 103 103 105 106 106 107 109 111 114 116
75 77 79 73 74 74 82 81 80 84 83 84 86 88 89 90 96 90 87 86 86 89 102 108 109 107 107 107 104 109 113 118 118 117 93 94 113 115
78 85 69 75 77 79 77 75 78 85 89 90 91 89 94 93 80 83 83 96 106 111 108 107 104 112 118 125 134 132 103 76 74 72 73 75 75 75
66 69 70 76 78 79 81 81 89 89 90 88 91 92 78 83 87 100 107 106 99 102 111 118 125 132 135 94 81 77 81 82 80 78 76 75 74 75
60 59 64 72 77 78 79 81 84 86 88 87 77 84 89 101 108 106 101 104 111 120 125 132 81 79 80 83 89 89 89 88 85 82 80 79 76 63
58 61 61 64 67 73 76 79 85 77 82 86 91 100 106 101 99 102 111 119 125 133 82 76 85 84 85 86 89 91 92 91 88 84 78 66 57 52
54 55 59 65 70 73 76 71 78 85 92 101 105 96 100 102 110 116 122 131 65 72 77 74 73 75 64 77 78 79 82 80 74 68 62 52 44 40
52 56 61 65 65 68 75 81 91 96 99 91 99 101 111 115 119 126 57 61 57 56 62 63 44 42 36 38 66 51 57 60 59 55 47 36 26 28
51 56 62 67 74 81 85 85 83 87 96 99 108 114 118 99 52 60 54 57 56 59 60 55 53 41 31 18 19 30 37 40 36 23 16 10 14 29
61 66 69 72 74 76 75 85 89 98 104 111 116 67 56 56 49 52 54 56 52 51 56 51 46 40 36 31 26 23 19 16 15 15 16 17 25 31
60 65 71 74 73 79 90 93 103 112 39 37 64 47 44 47 44 49 52 53 51 47 43 48 42 35 31 31 30 26 24 21 15 17 15 13 12 14
65 70 73 78 84 88 98 40 55 59 57 40 42 46 47 40 44 46 48 45 44 47 44 38 32 27 31 30 25 22 20 18 16 16 14 13 11 10
71 75 81 82 91 83 65 27 32 36 40 42 45 34 36 40 41 43 37 37 38 35 33 27 24 23 28 22 24 22 22 20 18 19 18 15 14 13
73 80 80 94 56 57 58 55 48 45 41 40 29 33 36 38 38 33 34 34 24 22 24 25 26 25 22 24 24 23 22 21 20 19 19 18 16 13
86 79 59 53 52 50 47 44 43 38 38 26 31 33 34 36 31 31 29 19 21 21 22 23 24 25 26 25 25 27 27 23 22 23 23 22 21 18
85 87 53 50 49 48 42 43 40 36 29 27 30 32 32 30 29 26 18 20 23 22 23 24 22 23 27 28 30 32 31 28 27 25 23 19 21 26
85 75 49 46 44 44 41 39 39 35 27 34 30 31 31 27 28 15 16 19 19 21 21 22 25 24 25 28 30 30 31 28 28 29 27 30 35 40
83 55 45 42 41 40 41 36 36 34 36 24 27 27 28 25 23 14 19 19 21 23 20 22 24 26 28 32 34 34 37 37 38 27 22 23 31 28
78 44 41 39 38 37 37 35 34 32 34 22 24 25 26 24 9 15 15 17 23 20 22 25 29 32 32 34 35 36 31 28 26 28 21 38 41 39
Wind_Direction
281 281 281 282 283 287 286 284 285 283 287 289 291 292 292 291 289 289 288 287 286 286 286 284 286 286 286 284 282 280 279 277 275 273 270 265 262 261
281 280 280 280 282 281 282 282 283 285 285 289 292 292 291 291 291 290 290 291 288 288 287 292 290 287 284 282 280 279 278 277 276 274 272 270 267 263
277 278 280 280 279 281 281 282 283 287 288 289 288 288 289 291 290 292 291 289 289 295 291 285 283 283 283 282 281 280 279 278 276 274 272 270 267 264
277 277 277 276 277 280 280 280 283 283 286 287 288 289 289 290 290 290 291 297 293 287 287 286 285 284 283 283 282 280 279 278 277 276 275 273 271 268
276 274 272 274 277 278 279 281 281 287 288 288 291 292 292 293 293 295 295 290 290 289 287 287 286 286 284 288 285 282 279 276 274 273 271 269 267 266
270 272 273 275 277 277 276 279 285 286 291 292 293 294 294 294 294 291 290 290 292 292 294 293 292 291 288 285 284 283 283 282 281 280 276 275 270 269
268 273 277 278 280 282 285 289 290 287 286 291 292 293 293 291 293 294 294 294 294 292 293 292 291 292 292 293 291 291 288 283 282 282 280 278 277 276
270 270 273 270 281 282 284 288 284 285 288 292 293 291 296 297 296 296 293 295 295 296 296 296 296 296 294 292 290 289 288 286 285 283 283 282 280 276
270 272 269 273 277 281 282 285 287 291 294 293 295 295 297 295 292 296 297 297 297 297 297 297 294 295 294 293 291 289 287 286 285 285 286 288 288 285
270 270 275 280 283 284 288 292 292 292 293 293 296 295 293 295 297 298 299 299 300 299 298 297 295 294 291 289 287 286 285 284 285 286 286 287 285 280
276 283 286 287 289 290 290 295 292 292 296 294 293 297 297 299 300 300 300 299 305 302 302 305 300 294 286 282 280 279 279 281 283 285 287 288 282 269
290 290 292 291 290 292 291 293 292 292 293 298 297 299 300 300 300 299 309 307 312 312 309 315 324 317 309 289 293 270 272 277 281 288 295 293 280 252
286 286 286 288 291 291 293 293 294 297 298 300 301 301 300 300 310 307 309 309 314 316 320 326 328 343 348 339 290 277 277 283 297 309 305 264 247 238
291 296 296 295 293 294 298 300 301 301 301 300 297 300 304 307 310 307 309 311 315 316 318 326 336 342 345 347 348 348 344 346 342 303 291 270 253 261
295 295 295 294 300 303 303 303 300 297 306 308 303 310 310 308 311 309 312 314 315 317 322 320 328 337 346 350 349 354 350 354 342 331 339 327 304 285
295 295 297 302 304 302 301 311 310 305 305 314 314 310 310 312 311 313 315 319 321 323 331 336 340 335 335 341 346 351 353 360 1 357 347 339 325 312
299 299 300 305 304 305 309 324 318 314 318 312 310 315 313 314 317 317 321 325 334 337 342 2 12 8 4 357 0 8 357 351 346 340 337 328 318 304
300 302 310 306 317 311 309 311 315 315 318 316 317 315 318 320 322 327 333 341 351 358 359 358 359 4 6 6 11 14 11 11 11 9 6 1 354 344
302 314 329 323 318 317 319 320 323 323 318 321 319 321 325 326 334 334 342 356 1 359 357 357 359 3 6 14 22 18 13 16 11 8 7 360 355 348
311 321 328 324 319 318 323 321 328 326 325 321 323 326 330 336 340 347 2 359 355 4 3 8 15 21 29 20 19 18 13 10 7 3 356 344 332 336
323 331 327 322 319 319 324 326 329 327 326 319 328 332 335 337 343 357 5 353 359 5 6 26 21 17 8 7 15 7 4 5 357 344 341 340 332 317
329 329 325 321 318 316 317 328 329 328 318 320 326 332 336 342 347 1 350 359 14 23 26 16 6 5 9 8 5 2 355 347 346 348 355 8 8 354
332 324 323 319 318 318 318 329 329 329 321 318 326 335 337 344 6 357 355 5 17 23 8 3 4 4 10 8 6 359 350 353 7 5 344 7 6 10